ONEWEB-0706, 61611

Orbit data source: Space-Track

ONEWEB-0706, 61611 is a payload satellite owned by Eut. One Web (UK) in LEO that was launched on Sun, 20 Oct 2024 UTC via an FALCON 9 launch vehicle from the Air Force Western Test Range (AFWTR). Payload-class satellites include a variety of spacecraft equipped with specific instruments for various scientific and technological missions. These include communications satellites like Starlink; space stations such as the ISS; scientific satellites like the Hubble; Earth observation satellites from companies like Planet Labs, Umbra, and HawkEye 360; GPS; miniature CubeSats for education and research; and military/defense satellites.

Loading next visibility...
Identifier
61611, 2024-188T
Orbit
LEO
Last TLE update
2 days ago
Origin
Manufacturer
One Web
Mission
Operational Commercial Communications
Bus & Motor
ARROW, Unknown motor
Mass
148 kg wet, ~140 kg dry
Launch date (UTC)
2024-10-20 (6 months ago)
Launch vehicle
FALCON 9
Launch site
Air Force Western Test Range (AFWTR)
Object type
Payload
Rocket body
Debris
Shape & HBR
Trap Box + 2 Pan, 5 m
Radar Cross Section
2.032 m², Large (>1 m²)

Expand to show TLE details & history

TLE from 2 days ago
0 ONEWEB-0706
1 61611U 24188T   25118.96694256  .00000043  00000-0  88100-4 0  9990
2 61611  87.8807 118.8459 0002015 101.2547 258.8807 13.10374269 27248
Epoch: 2025-04-28T23:12Z
Definitive object data (Epoch: 2025-04-28T23:12:23.837Z)
Latitude
0.00001°
Longitude
-86.4268°
Altitude
1,224.895 km
Speed
7.242 km/s
True Right ascension
07h 55m 23s
True Declination
0° 00' 00"
Sunlit
Object was in daylight at TLE epoch
Visualization TLE readout
Latitude
3.01328°
Longitude
93.05913°
Altitude
1,224.02 km
Speed
7.243 km/s
Apparent Right ascension
19h 40m 48s
Apparent Declination
-16° 25' 29"
Sunlit
Object is in daylight
Visualization observer readout
Local Sidereal Time
07:21:23
Azimuth
348.429° N
Elevation
-66.132°
Doppler factor
1
Orbital elements
Apogee altitude
1,220.362 km
Perigee altitude
1,217.301 km
Semi-major axis
7,596.968 km
Eccentricity
0.0002015
Inclination
87.8807°
RAAN
118.8459°
Arg. of periapsis
101.2547°
True anomaly
258.85804°
Mean anomaly
258.8807°
Eccentric anomaly
258.86937°
Mean motion
3.2778 °/min
BSTAR
0.0000881
Orbital period
109.83 mins
Loading maneuver chart data...
Loading SW <> Apogee altitude chart data...
Loading historical data...
Loading historical data...
Loading historical data...
Loading historical data...
Loading historical data...
Loading historical data...
Loading historical data...

ONEWEB-0706 Visibility forecast

Observer location: undefined°, undefined°

Span
Click to sort rows by Start time (UTC) header in descending order
Start Az.
Max El. time (UTC)
Max El. Az.
Max El.
End time (UTC)
End Az.
14 mins2025-05-01 00:46:11.885Z195.629° SSW2025-05-01 00:53:11.885Z267.527° W40.326°2025-05-01 01:00:11.885Z351.987° N
8 mins2025-05-01 10:29:11.885Z39.257° NE2025-05-01 10:33:11.885Z77.307° E18.825°2025-05-01 10:37:11.885Z113.678° SE
12 mins2025-05-01 12:18:11.885Z352.84° N2025-05-01 12:23:11.885Z296.867° NW43.264°2025-05-01 12:30:11.885Z191.512° SSW
9 mins2025-05-01 22:49:11.885Z116.114° SE2025-05-01 22:53:11.885Z78.375° E21.082°2025-05-01 22:58:11.885Z31.473° NE
|